Theta_e
317 313 310 311 312 313 312 312 313 312 312 312 315 316 318 320 320 322 322 319 319 322 322 322 323 322 321 320 320 318 309 311 315 317 318 323 327 329 329 328 331 331 334 339 342
316 317 312 310 311 313 313 311 313 313 313 313 312 315 317 319 321 322 324 320 320 321 322 321 322 323 322 320 318 312 309 314 314 316 317 326 327 328 331 334 332 336 335 338 341
313 316 317 311 310 312 313 311 313 313 313 314 313 313 315 318 320 322 320 317 319 322 321 321 322 322 321 320 317 312 313 312 316 319 323 322 326 329 330 330 334 334 335 335 335
311 313 315 315 312 311 311 312 314 313 314 316 315 314 314 317 322 323 319 320 321 321 320 321 321 321 317 319 319 319 315 315 317 322 322 322 328 327 328 332 333 333 335 332 328
310 310 312 316 313 312 310 313 315 314 315 316 316 314 315 321 321 323 320 321 321 320 320 321 321 320 318 318 318 317 318 316 318 319 323 324 323 324 327 331 334 335 333 328 324
310 310 310 313 316 313 312 314 316 315 316 315 315 314 317 320 321 319 320 320 320 320 320 321 321 321 320 320 318 319 319 318 319 321 324 323 325 327 328 329 329 328 327 325 325
309 310 310 310 313 315 314 314 316 316 316 316 316 314 317 322 321 321 321 322 321 320 319 320 321 321 320 320 321 320 319 317 318 319 320 326 325 323 328 328 328 328 327 326 326
309 309 309 310 311 316 314 316 317 316 317 316 316 316 318 323 321 320 321 321 321 321 320 320 320 320 320 321 319 318 315 319 318 319 322 320 320 319 328 328 327 327 326 326 326
311 310 309 310 311 315 316 319 320 320 317 319 317 317 318 322 322 320 320 321 321 321 320 320 320 320 320 317 317 315 321 319 319 318 318 319 320 320 327 328 327 327 326 327 327
313 312 310 310 310 315 320 321 321 323 319 318 317 319 321 323 324 321 320 320 320 321 321 320 320 316 313 316 320 320 319 319 319 319 319 320 321 319 326 327 327 327 327 327 327
313 314 313 310 310 314 319 321 320 320 319 320 320 318 320 323 321 321 320 320 319 319 317 319 318 319 318 317 319 319 318 319 318 319 319 318 321 319 321 324 326 327 327 327 327
311 312 315 312 310 313 318 319 317 317 316 319 319 320 320 321 321 320 320 319 319 317 317 314 318 318 318 317 318 319 319 320 318 317 318 317 320 316 319 320 323 325 327 327 327
309 311 313 316 311 315 315 318 318 319 317 319 319 320 320 321 321 322 321 319 318 317 317 316 317 318 319 317 318 318 319 319 319 317 316 316 316 315 321 323 322 321 326 328 327
308 308 308 314 312 313 316 317 319 320 312 315 319 320 320 322 322 322 323 320 317 318 315 315 316 319 318 319 317 318 317 317 316 315 319 314 317 313 323 321 321 322 325 327 327
307 307 307 308 311 313 312 318 320 320 315 316 321 321 321 322 320 321 322 320 316 318 317 318 318 318 319 320 317 318 315 315 315 313 315 316 314 312 323 324 323 321 324 324 323
307 307 308 311 311 314 313 318 320 313 315 320 320 319 318 319 320 319 320 320 318 317 317 317 317 318 317 316 316 314 317 314 313 313 317 317 317 317 324 323 322 322 324 324 321
307 307 314 315 313 314 315 319 315 316 316 323 321 318 319 318 319 319 319 318 316 316 317 319 319 316 316 316 315 314 314 313 314 316 316 317 319 317 320 322 321 321 324 324 322
307 308 316 316 316 314 314 314 316 316 318 322 323 319 319 318 319 319 318 318 316 316 315 318 319 316 315 315 313 314 314 316 315 315 312 317 323 324 322 323 324 324 324 321 322
307 308 317 317 319 315 317 316 316 316 320 322 321 319 318 318 318 319 318 317 317 315 318 316 320 316 315 315 316 318 316 313 316 317 320 319 320 321 323 322 322 323 321 322 322
307 310 315 317 316 314 314 315 317 318 322 322 321 322 323 322 321 317 317 319 320 316 317 317 318 318 315 314 313 318 317 322 318 324 325 319 320 321 324 323 320 319 321 322 321
307 310 313 316 316 317 312 315 319 322 322 323 323 323 322 323 321 318 318 318 319 316 317 316 317 319 316 314 313 317 317 318 318 317 316 316 319 316 321 321 320 320 321 321 317
307 305 313 316 317 314 316 318 321 322 322 322 322 321 322 321 321 320 320 320 321 316 317 315 313 317 316 315 314 315 315 318 319 318 314 314 318 317 316 319 320 321 322 320 317
307 310 313 316 315 311 312 316 318 319 323 324 324 323 321 321 322 319 320 320 318 315 317 315 313 315 315 312 316 316 315 315 313 315 319 319 321 317 319 319 320 320 318 318 319
308 308 312 312 310 310 311 315 316 317 320 321 323 322 321 320 318 320 320 319 319 320 318 316 312 316 320 315 314 317 317 316 315 316 316 319 320 316 321 317 316 317 317 318 319
308 308 307 308 309 307 309 313 317 316 314 316 321 322 323 321 319 318 318 318 319 319 315 315 317 316 316 317 317 318 318 316 317 315 317 316 317 315 316 315 316 317 318 318 318
308 307 307 307 308 307 308 311 313 313 314 315 317 314 321 321 320 321 319 317 318 318 316 311 316 317 318 320 319 319 319 319 318 317 316 315 317 317 316 317 317 317 318 317 318
306 306 307 305 306 306 307 308 309 310 313 314 312 313 322 322 320 320 319 318 315 315 314 315 316 316 318 320 319 318 318 318 319 320 319 318 316 315 314 315 316 317 317 317 316
Wind_Speed
30 29 24 16 11 9 8 7 6 6 4 4 4 3 3 4 6 8 5 2 3 5 6 5 4 4 4 3 3 3 5 2 1 3 2 4 6 10 5 10 9 3 9 19 14
27 29 29 22 15 11 10 8 6 6 5 4 4 3 4 5 8 5 1 1 4 4 6 6 4 2 4 3 2 5 4 6 3 3 6 13 12 11 7 14 13 24 20 17 13
25 27 28 26 20 14 11 8 7 5 4 4 4 4 4 5 3 4 2 6 5 4 6 7 5 5 4 2 1 2 3 4 2 12 21 11 13 9 22 3 18 32 28 22 18
25 25 26 26 23 17 12 9 7 5 4 4 4 3 3 2 1 2 5 10 6 6 9 7 6 3 3 3 1 2 3 4 6 17 17 12 27 11 9 17 31 30 31 27 22
26 25 24 25 23 19 13 8 7 5 3 4 4 2 0 1 2 2 8 4 3 4 7 8 11 4 3 1 2 3 3 5 6 15 15 24 6 7 11 29 30 33 31 28 23
25 25 24 23 23 20 13 9 7 5 4 4 3 0 1 1 4 5 8 3 4 5 3 6 5 4 4 1 3 1 2 2 7 14 15 12 5 5 17 30 29 30 27 25 23
25 25 24 23 23 21 13 8 7 6 5 3 1 2 4 3 6 7 5 2 2 4 2 2 4 4 3 2 5 2 4 5 1 9 4 18 5 3 28 30 30 27 25 22 20
26 25 24 23 23 21 13 9 6 4 4 1 1 3 4 5 8 7 5 4 7 7 5 2 3 3 1 1 5 4 5 3 3 7 12 4 6 6 30 32 29 25 23 22 20
27 25 24 22 21 20 11 9 9 5 4 3 3 3 3 7 9 6 6 2 5 3 4 4 3 2 2 4 4 6 3 2 5 9 6 4 5 6 31 29 26 28 25 23 20
28 26 23 21 19 16 11 10 8 3 2 1 3 2 4 1 5 9 7 6 2 2 2 2 2 3 3 4 4 4 2 2 3 1 2 6 4 6 29 31 31 27 25 25 23
29 27 24 18 17 13 10 5 5 2 4 7 12 12 9 1 6 8 8 7 5 2 2 3 5 3 5 5 3 4 3 0 3 0 3 5 3 8 17 17 20 24 25 25 22
29 27 23 19 14 8 8 5 9 10 12 16 17 19 20 12 3 9 8 6 3 2 2 5 3 6 5 4 3 2 3 0 3 4 4 5 2 3 8 13 28 30 28 27 22
28 28 24 16 14 2 7 4 10 11 5 14 14 16 22 18 9 14 6 8 3 3 2 5 3 3 4 4 6 2 5 3 3 4 4 3 5 3 1 2 6 21 30 25 21
28 28 30 21 8 4 2 6 8 5 4 7 4 5 14 11 5 19 12 6 2 5 6 3 4 3 3 3 4 3 3 2 2 3 2 3 4 4 4 7 1 10 23 23 17
30 29 31 26 22 10 5 4 3 1 4 3 2 4 12 17 7 9 14 11 7 4 5 5 1 2 2 3 4 4 3 3 2 4 3 3 3 7 4 3 2 8 17 12 12
31 31 39 28 19 8 4 1 4 5 6 5 4 4 5 3 3 5 6 7 5 3 2 4 1 3 6 3 2 7 5 7 5 3 1 3 5 5 4 5 3 5 12 10 12
32 34 26 18 7 5 5 6 5 4 5 4 1 2 2 4 2 3 5 4 5 4 2 2 2 3 3 4 3 6 6 3 3 4 5 3 2 8 5 6 8 10 15 10 9
32 33 15 19 7 11 8 4 4 4 5 5 4 2 8 4 5 3 5 4 3 4 3 4 4 5 3 6 7 3 7 5 5 3 4 2 5 5 3 7 9 10 11 9 8
32 25 19 19 5 12 9 3 8 6 3 4 6 1 1 1 1 3 7 5 7 8 7 5 4 1 3 3 6 4 3 4 7 3 2 3 6 7 2 2 5 11 10 7 6
30 20 21 16 1 16 4 3 3 3 2 4 3 4 3 3 4 5 6 5 5 12 5 7 2 1 2 6 7 4 7 3 3 2 3 4 4 5 5 8 7 9 11 9 6
23 7 13 6 6 1 3 5 3 2 7 3 1 3 3 3 3 3 6 6 6 3 6 6 4 4 1 4 8 2 1 6 5 4 5 1 5 6 10 11 10 16 12 8 4
11 3 8 4 2 2 1 2 7 5 3 2 3 6 5 5 4 4 8 7 8 11 9 5 6 4 6 4 1 3 6 6 5 5 2 4 6 3 7 5 5 4 10 7 7
18 6 8 5 2 2 5 3 2 4 3 3 2 2 2 3 3 7 6 3 10 9 10 8 1 3 6 5 2 3 4 4 5 3 6 5 6 2 5 1 2 10 9 9 8
7 4 4 9 6 2 3 2 5 8 3 4 3 3 4 4 6 6 3 2 3 4 7 9 3 7 9 7 5 4 4 5 5 4 4 6 5 6 1 4 7 11 9 8 5
3 1 1 2 4 4 2 3 2 5 5 7 1 3 2 3 6 2 4 3 2 4 4 5 6 4 2 4 5 4 5 6 5 4 5 5 6 7 3 6 9 9 7 6 4
3 1 1 0 3 3 3 2 3 4 1 4 3 11 5 2 4 4 6 5 4 1 3 1 4 3 3 3 4 3 6 7 6 4 5 4 5 1 7 12 8 7 6 4 2
2 1 2 2 2 1 1 2 2 5 6 9 3 5 5 6 6 2 1 11 11 4 4 6 6 3 3 4 4 4 8 5 3 2 4 5 7 7 5 9 6 4 4 5 4
Wind_Direction
23 22 20 13 2 352 344 334 328 326 324 319 324 331 315 306 311 318 345 50 102 108 83 60 58 20 68 87 70 60 62 76 127 136 82 112 98 68 84 101 70 119 127 131 120
19 19 17 15 8 357 348 338 333 328 324 314 313 308 302 307 316 348 320 163 157 105 67 37 58 120 98 83 64 78 89 202 224 139 130 110 95 116 109 105 88 107 125 131 127
14 14 15 13 8 0 351 343 335 333 327 327 315 306 297 318 352 36 8 178 154 86 31 30 47 101 88 76 59 121 154 178 180 121 133 119 107 122 121 340 151 145 143 140 139
8 9 9 11 6 0 353 349 341 337 333 339 332 314 293 326 139 29 109 121 110 62 37 43 50 81 80 85 57 41 241 191 151 151 140 140 138 152 174 164 144 143 146 150 142
1 2 3 4 4 358 353 351 347 338 331 343 337 330 150 344 50 191 155 125 86 64 48 55 49 70 82 84 67 141 269 206 130 169 163 146 135 143 162 153 153 153 157 152 142
355 355 356 357 359 356 347 342 344 333 321 337 339 262 176 329 109 146 147 125 51 30 49 53 46 44 95 87 103 253 79 127 146 133 143 136 140 111 163 163 161 160 160 158 149
349 349 349 350 352 353 339 334 332 331 327 312 287 242 240 210 171 162 163 125 318 330 10 57 20 12 347 20 354 74 93 25 218 165 151 124 345 188 170 173 168 173 171 163 155
344 343 344 345 346 350 334 328 330 334 342 343 265 248 239 197 194 210 214 253 266 264 287 312 350 313 229 325 30 71 58 97 253 156 169 103 229 229 174 175 182 184 179 173 167
339 339 340 342 343 349 340 328 314 309 302 296 276 229 242 209 226 205 215 219 136 222 258 264 301 89 91 81 24 11 163 161 302 203 146 180 233 202 181 186 184 183 181 177 171
334 332 335 340 341 349 347 331 339 298 298 295 250 273 225 288 207 208 207 220 230 126 216 193 100 71 44 79 190 202 144 230 230 315 177 173 212 166 180 189 196 193 187 186 186
332 328 329 337 337 345 358 3 342 308 282 249 275 267 275 318 195 209 202 181 201 130 83 23 61 229 221 195 149 146 118 312 280 199 141 206 185 172 189 197 203 207 199 197 196
341 333 325 328 333 336 360 87 38 319 297 291 266 245 246 250 293 209 221 203 136 163 107 26 226 223 198 138 156 134 116 3 293 355 141 181 206 62 164 207 216 211 206 202 201
348 344 331 322 325 302 11 96 347 328 261 295 252 237 226 228 226 227 197 191 148 135 169 163 236 121 148 122 100 58 133 158 183 349 45 61 338 346 289 318 260 228 216 202 204
345 346 340 330 315 313 117 353 340 339 34 281 253 242 192 187 223 224 235 187 91 167 151 212 291 142 129 152 128 154 188 120 96 80 213 42 259 294 318 314 310 206 199 198 215
339 344 336 331 305 298 289 326 349 15 349 258 239 171 174 166 156 192 202 195 161 192 102 246 125 124 142 199 141 204 91 63 71 90 73 1 79 270 320 293 179 155 172 185 202
336 342 331 324 315 285 235 196 140 43 250 325 142 158 127 204 161 128 151 157 112 106 21 216 302 168 197 84 92 143 79 47 49 77 26 218 137 273 207 214 201 189 180 176 179
334 339 335 344 313 222 180 143 57 150 316 315 6 153 192 165 186 137 150 139 153 104 244 336 285 312 140 103 52 75 62 346 352 8 222 178 92 241 234 232 194 195 192 191 191
334 344 347 346 304 218 190 60 142 222 254 307 349 165 186 153 211 147 119 185 200 106 124 151 308 181 184 176 181 152 146 152 205 209 261 295 230 253 249 280 200 194 183 185 212
334 347 2 345 260 200 168 121 195 207 279 4 336 145 252 76 210 141 193 218 195 172 162 147 267 252 193 139 129 177 152 160 103 16 40 270 297 317 215 220 216 198 197 202 230
337 342 1 351 317 167 95 225 215 211 8 7 342 32 2 16 10 161 191 224 219 193 163 204 106 270 145 108 42 141 150 78 21 149 261 298 282 235 241 230 229 233 216 218 246
338 331 7 49 78 179 143 237 266 156 57 70 35 311 286 305 205 221 220 260 219 155 125 138 119 273 125 196 168 99 124 57 116 131 169 228 264 216 210 214 210 227 213 224 209
340 329 349 213 55 40 124 313 337 329 23 257 170 221 225 203 264 251 218 219 183 150 165 187 136 167 195 316 98 143 173 144 130 222 178 149 274 295 253 276 228 244 216 201 159
327 293 9 155 120 354 315 301 312 357 352 8 317 48 301 249 269 217 235 294 174 157 167 183 246 76 357 353 335 185 175 124 109 82 188 142 257 326 350 91 140 153 155 142 138
317 338 5 65 47 87 14 350 331 354 146 2 265 26 354 277 213 247 245 317 186 140 138 132 123 158 190 201 148 160 168 146 132 129 173 218 272 292 268 103 129 133 130 121 101
288 273 41 350 353 346 285 338 357 355 360 349 308 54 326 286 323 291 330 301 26 149 98 127 158 149 194 172 134 149 168 169 179 172 155 244 198 277 231 162 146 123 107 100 58
289 333 347 233 306 315 344 60 31 336 316 325 45 328 300 210 150 292 357 355 276 270 118 39 166 143 150 169 136 203 240 207 204 202 241 251 247 172 133 136 129 111 110 96 59
249 258 305 343 21 18 284 38 36 357 266 238 34 334 286 252 229 254 357 311 263 279 216 142 136 110 220 152 107 311 229 199 142 104 139 181 215 159 119 121 114 112 130 112 62